Regional Weather Roundup
Issued by NWS San Angelo, TX

Home | Current Version | Previous Version | Text Only | Print | Product List | Glossary On
Versions: 1 2 3 4 5 6 7 8 9 10 11 12 13 14 15 16 17 18 19 20 21 22 23 24 25 26 27 28 29 30 31 32 33 34 35 36 37 38 39 40 41 42 43 44 45 46 47 48 49 50
000
ASUS44 KSJT 271011
RWRSJT
WEST CENTRAL TEXAS REGIONAL WEATHER ROUNDUP
NATIONAL WEATHER SERVICE SAN ANGELO TX
500 AM CDT FRI MAY 27 2016

NOTE: "FAIR" INDICATES FEW OR NO CLOUDS BELOW 12,000 FEET WITH NO
SIGNIFICANT WEATHER AND/OR OBSTRUCTIONS TO VISIBILITY.

TXZ049-054-064>066-071>073-076>078-098-099-113-114-127-128-139-140-
154-155-168>170-271100
...LOCATIONS ACROSS WEST CENTRAL TEXAS...

CITY           SKY/WX    TMP DP  RH WIND       PRES   REMARKS
SAN ANGELO     PTCLDY    64  63  96 SW5       29.70R
ABILENE        CLOUDY    62  32  32 E8        29.72F
DYESS AFB      NOT AVBL
JUNCTION       MOCLDY    76  70  82 CALM      29.70R
SWEETWATER     CLOUDY    63  63  99 SE5       29.75S
BROWNWOOD      CLOUDY    63  63 100 N6        29.73F
COLEMAN        CLOUDY    63  62  97 E7        29.72F
SONORA         CLEAR     73  68  83 CALM      29.75R
OZONA          FAIR      68  63  83 CALM      29.74R
BRADY          NOT AVBL
$$

TEXAS PANHANDLE/OKLAHOMA PANHANDLE

CITY           SKY/WX    TMP DP  RH WIND       PRES   REMARKS
AMARILLO       PTCLDY    48  41  76 N8        29.78R
BORGER         CLOUDY    53  42  66 CALM      29.76R
CANADIAN       CLOUDY    55  46  73 W3        29.69R
DALHART        CLEAR     47  39  74 NW8       29.80R
DUMAS          SUNNY     45  40  83 NW9       29.78R WCI  40
GUYMON         NOT AVBL
HEREFORD       SUNNY     44  36  71 N9        29.80R WCI  39
PAMPA          CLOUDY    50  45  83 NW10      29.73F
PERRYTON       CLOUDY    51  44  77 NW10      29.70F
$$

SOUTHERN PANHANDLE/SOUTH PLAINS/ROLLING PLAINS

CITY           SKY/WX    TMP DP  RH WIND       PRES   REMARKS
LUBBOCK        CLEAR     56  26  31 NW8       29.73S
SNYDER           N/A     62  61  96 S6        29.74R
CHILDRESS      CLOUDY    66  63  90 S8        29.67R
SEMINOLE       SUNNY     59  23  25 W8        29.80R
$$

PERMIAN BASIN

CITY           SKY/WX    TMP DP  RH WIND       PRES   REMARKS
MIDLAND        CLEAR     68  29  23 NW13      29.75R
ODESSA         CLEAR     69  21  16 NW13      29.77R
WINK           CLEAR     56  29  35 NW7       29.76S
$$

FAR WEST/SOUTHWEST MOUNTAINS/TRANS PECOS

CITY           SKY/WX    TMP DP  RH WIND       PRES   REMARKS
ALPINE         SUNNY     50  25  37 W8        29.96R
DRYDEN           N/A     71  46  40 SW10      29.71R
EL PASO        CLEAR     68  18  14 W12       29.89S
FORT STOCKTON  CLEAR     62  22  21 W10       29.79R
GUADALUPE PASS NOT AVBL
MARFA          CLEAR     51  14  22 NW7       29.93S
PECOS          SUNNY     64  19  18 W9        29.80R
$$

DALLAS/FORT WORTH METROPLEX

CITY           SKY/WX    TMP DP  RH WIND       PRES   REMARKS
DFW AIRPORT    TSTM      69  64  84 W26G35    29.79R
FTW MEACHAM    TSTM      68  65  90 W9        29.78R FOG
DAL-EXECUTIVE  CLOUDY    67  63  87 S12G22    29.71R
GRAND PRAIRIE  CLOUDY    67  65  93 S10G16    29.75R
ADDISON        CLOUDY    71  66  86 S13       29.72R
MESQUITE       CLOUDY    68  66  94 S16       29.71R
LANCASTER      CLOUDY    67  63  88 S12       29.72F
$$

NORTH CENTRAL TEXAS

CITY           SKY/WX    TMP DP  RH WIND       PRES   REMARKS
SHRMAN/DENISON CLOUDY    65  62  90 W6        29.76R
GAINESVILLE    RAIN      67  65  93 SW9       29.82R
BRIDGEPORT     TSTM      66  66 100 CALM      29.84R
DENTON         TSTM      69  65  86 VRB3      29.80R
WAXAHACHIE     CLOUDY    68  67  95 S18G24    29.77R
GRANBURY         N/A     65  62  89 W9        29.80F THUNDER
$$

WESTERN NORTH TEXAS

CITY           SKY/WX    TMP DP  RH WIND       PRES   REMARKS
WICHITA FALLS  TSTM      67  63  87 SW17      29.75R
VERNON         CLOUDY    70  56  61 S12       29.68R THUNDER
BRECKENRIDGE   CLOUDY    66  58  77 E8        29.65F
COMANCHE       TSTM      61  61 100 N13       29.76F
$$

CENTRAL AND SOUTH CENTRAL TEXAS

CITY           SKY/WX    TMP DP  RH WIND       PRES   REMARKS
AUSTIN/BERGSTM CLOUDY    70  68  93 CALM      29.74R
WACO           CLOUDY    70  67  90 S7        29.77R
HILLSBORO      HVY RAIN  67  60  80 W28G44    29.90R
TEMPLE         CLOUDY    68  66  93 SE8       29.76R
KILLEEN-GRAY   CLOUDY    67  65  95 SE12      29.72R
FORT HOOD      CLOUDY    67  66  98 SE8       29.72R
GEORGETOWN     MOCLDY    70  64  83 SE8       29.75R
LAGO VISTA     CLOUDY    68  67  95 SE9       29.75R
SAN MARCOS     CLOUDY    70  68  94 E8        29.73S
NEW BRAUNFELS  CLOUDY    72  68  87 E9        29.71S
RANDOLPH AFB   MOCLDY    71  71 100 E7        29.70S
SAN ANTONIO    CLOUDY    74  70  87 E8        29.70F
STINSON        CLOUDY    79  74  84 SE9       29.68F
PLEASANTON     NOT AVBL
LA GRANGE        N/A     69  69  97 E5        29.73S
GIDDINGS       NOT AVBL
$$

EAST TEXAS

CITY           SKY/WX    TMP DP  RH WIND       PRES   REMARKS
PARIS          CLOUDY    70  59  68 E8        29.69R
CLARKSVILLE    NOT AVBL
TYLER          TSTM      69  66  90 SE16G28   29.74F
LONGVIEW       LGT RAIN  69  68  96 S15       29.80F
PALESTINE      LGT RAIN  69  68  98 NE16      29.81R
NACOGDOCHES    CLOUDY    66  66 100 E5        29.87F
$$

TEXAS HILL COUNTRY AND EDWARDS PLATEAU

CITY           SKY/WX    TMP DP  RH WIND       PRES   REMARKS
LLANO          CLOUDY    68  64  88 SE9       29.74F
HORSESHOE BAY  CLOUDY    67  65  94 CALM      29.72R
KERRVILLE      CLOUDY    74  72  91 SE13      29.71S
FREDERICKSBRG  CLOUDY    71  69  93 SE6       29.73R
ROCKSPRINGS      N/A     73  72  94 SE15G21   29.73S
HONDO          CLOUDY    77  74  90 SE13      29.70F
UVALDE         PTSUNNY   75  73  93 E10G16    29.68R
DEL RIO        CLEAR     74  64  71 E3        29.64R
$$

SOUTHEAST TEXAS

CITY           SKY/WX    TMP DP  RH WIND       PRES   REMARKS
COLLEGE STN    CLOUDY    67  66  97 S8G18     29.78R
CALDWELL       CLOUDY    66  66 100 SE12G18   29.80R
CROCKETT       TSTM      68  68 100 SE3       29.83F
BRENHAM        CLOUDY    66  66  97 E7          N/A
HUNTSVILLE     TSTM      66  63  90 E9        29.76F
CONROE         TSTM      65  65 100 E6          N/A  FOG
HOUSTON BUSH   TSTM      67  65  93 N23G38    29.85S FOG
HOUSTON HOBBY  CLOUDY    79  76  90 CALM      29.80S
PERLAND        CLOUDY    81  76  84 SE5       29.81S
WHARTON        CLOUDY    78  76  92 E7        29.79S
$$

THE UPPER TEXAS COAST

CITY           SKY/WX    TMP DP  RH WIND       PRES   REMARKS
ORANGE         PTSUNNY   78  74  88 S9        29.86R
PORT ARTHUR    CLOUDY    78  74  87 SE15      29.82F
GALVESTON      MOCLDY    79  77  94 SE18G24   29.79F
ANGLETON       CLOUDY    81  76  84 SE15      29.77F
BAY CITY       CLOUDY    80  77  91 SE12G18   29.77R
$$

TEXAS COASTAL BEND, RIO GRANDE PLAINS DEEP SOUTH TEXAS

CITY           SKY/WX    TMP DP  RH WIND       PRES   REMARKS
VICTORIA       CLOUDY    79  76  90 SE10      29.73S
BEEVILLE       CLOUDY    80  79  96 SE14      29.70S
ROCKPORT       CLOUDY    82  77  84 S14G23    29.71F
PORT ARANSAS   CLOUDY    81  80  96 S12       29.72S
PORT LAVACA    CLOUDY    80  78  94 SE15G21   29.73S
CORPUS CHRISTI MOCLDY    81  76  84 S12       29.70S
KINGSVILLE NAS CLOUDY    80  79  96 SE7       29.69S
COTULLA        CLEAR     78  73  84 SE10      29.65R
LAREDO         CLEAR     79  67  66 S17       29.64F
BROWNSVILLE    MOCLDY    81  79  94 S17       29.69F
PORT ISABEL    CLEAR     82  79  90 S23G32    29.67S FOG
HEBBRONVILLE   PTSUNNY   75  72  91 S6        29.69S
MCALLEN        PTCLDY    82  76  81 S17G28    29.68F
WESLACO        CLOUDY    80  76  86 S16G22    29.67S
FALFURRIAS     CLOUDY    82  75  79 S8G16     29.67F
EDINBURG       CLOUDY    82  76  81 S15G24    29.67S
$$



USA.gov is the U.S. government's official web portal to all federal, state and local government web resources and services.